[[{"header":{"parameterUnit":"m.s-1","parameterCategory":1,"la1":30.2991,"la2":30.254,"lo1":-89.0895,"lo2":-89.0444,"dx":0.0017,"dy":0.0017,"nx":28,"ny":28,"refTime":"2022-11-21T15:00:00:Z","depth":0,"parameterNumber":2,"parameterNumberName":"U-component_of_WINDS"},"data":[0,0,0,0,0,0,0,0,0,0,0,0,0,0,0,0,0,0,0,0,0,0,0,0,0,0,0,0,0,0,0,0,0,0,0,0,0,0,0,0,0,0,0,0,0,0,0,0,0,0,0,0,0,0,0,0,0,0,-1.6112,-1.6113,0,-1.6135,-1.6135,-1.6135,-1.6108,-1.6107,-1.6106,-1.6105,-1.6128,-1.613,-1.6131,0,0,0,0,0,0,0,0,0,0,0,0,0,-1.6047,-1.6048,-1.6112,-1.6113,-1.6113,-1.6135,-1.6135,-1.6135,-1.6108,-1.6107,-1.6106,-1.6104,-1.6128,-1.6129,-1.6131,0,0,0,0,0,0,0,0,0,0,0,0,0,-1.6073,-1.6049,-1.6112,-1.6102,-1.6101,-1.6134,-1.6135,-1.6135,-1.6108,-1.6107,-1.6105,-1.6104,-1.6127,-1.6129,-1.6132,-1.6176,0,0,-1.6139,-1.614,0,0,0,0,0,0,0,0,-1.6071,-1.6075,-1.6103,-1.6103,-1.6102,-1.6117,-1.612,-1.6149,-1.6109,-1.6106,-1.6105,-1.6103,-1.6126,-1.6128,-1.6135,-1.6177,-1.6178,-1.6139,-1.614,-1.6141,-1.6142,0,0,0,0,0,0,0,-1.607,-1.6074,-1.6121,-1.6104,-1.6103,-1.6096,-1.6098,-1.6126,-1.6124,-1.6106,-1.6104,-1.6107,-1.6125,-1.6133,-1.6136,-1.6179,-1.6139,-1.6141,-1.6142,-1.6143,-1.6258,-1.6259,0,0,0,0,0,0,-1.6069,-1.6073,-1.6121,-1.6122,-1.6083,-1.6099,-1.6101,-1.6114,-1.6123,-1.6124,-1.6108,-1.6106,-1.613,-1.6133,-1.6137,-1.619,-1.6141,-1.6144,-1.6145,-1.6256,-1.6258,-1.626,0,0,0,0,0,0,-1.6068,-1.6073,-1.612,-1.6097,-1.6102,-1.6101,-1.6116,-1.6115,-1.6123,-1.6125,-1.6125,-1.6117,-1.6129,-1.6133,-1.6166,-1.619,-1.6145,-1.6147,-1.6254,-1.6257,-1.6259,-1.6296,0,0,0,0,0,0,-1.6066,-1.6073,-1.609,-1.6097,-1.6104,-1.6149,-1.6117,-1.6116,-1.6127,-1.6124,-1.6133,-1.6133,-1.6128,-1.6163,-1.6169,-1.6192,-1.6149,-1.6252,-1.6255,-1.6258,-1.6293,-1.6299,-1.6305,0,0,0,0,0,-1.6064,-1.61,-1.6091,-1.6097,-1.6125,-1.6151,-1.6154,-1.6147,-1.6129,-1.6146,-1.6147,-1.6133,-1.6186,-1.6167,-1.6173,-1.6198,-1.6251,-1.6254,-1.6258,-1.629,-1.6298,-1.6305,0,0,0,0,0,0,-1.6096,-1.6101,-1.6091,-1.6131,-1.614,-1.6146,-1.6167,-1.6156,-1.6171,-1.6168,-1.6158,-1.6161,-1.6196,-1.62,-1.6178,-1.6241,-1.6216,-1.6221,-1.6237,-1.6245,-1.6251,-1.625,-1.615,0,0,0,0,0,-1.6107,-1.6128,-1.6131,-1.6166,-1.6171,-1.6168,-1.6179,-1.6173,-1.6183,-1.6187,-1.6191,-1.6201,-1.622,-1.6233,-1.625,-1.6293,-1.6294,-1.6312,-1.6319,-1.6324,-1.6329,-1.6351,-1.636,-1.6272,-1.6272,-1.6272,0,0,-1.6132,-1.6137,-1.615,-1.6172,-1.6179,-1.6201,-1.6172,-1.6196,-1.6212,-1.6191,-1.6222,-1.6225,-1.6236,-1.6274,-1.6291,-1.6278,-1.6353,-1.6328,-1.6333,-1.6335,-1.6356,-1.6364,-1.6372,-1.6275,-1.6274,-1.6274,0,0,-1.6187,-1.6193,-1.6222,-1.623,-1.624,-1.6238,-1.6245,-1.6253,-1.6254,-1.6285,-1.6269,-1.6288,-1.6321,-1.6329,-1.6338,-1.6396,-1.6383,-1.6402,-1.6435,-1.6457,-1.6464,-1.647,-1.6491,-1.6498,-1.6406,-1.6406,-1.6406,0,-1.6216,-1.6248,-1.6239,-1.6264,-1.6274,-1.6255,-1.6285,-1.6293,-1.6309,-1.6316,-1.6301,-1.6342,-1.6348,-1.6388,-1.6402,-1.6409,-1.6417,-1.6401,-1.6463,-1.6469,-1.6475,-1.6495,-1.6503,-1.6409,-1.6408,-1.6408,-1.6408,0,-1.6283,-1.6306,-1.6328,-1.6344,-1.6356,-1.6384,-1.6379,-1.6392,-1.6385,-1.6384,-1.6416,-1.6423,-1.6441,-1.645,-1.6443,-1.6489,-1.6481,-1.6465,-1.6439,-1.6486,-1.6504,-1.6512,-1.6412,-1.6411,-1.641,-1.641,0,0,-1.6361,-1.637,-1.6379,-1.6386,-1.6396,-1.6413,-1.6439,-1.6457,-1.6469,-1.648,-1.6502,-1.653,-1.6515,-1.6525,-1.6519,-1.6538,-1.6584,-1.652,-1.652,-1.6532,-1.6635,-1.6647,-1.6656,-1.6575,-1.6577,-1.6578,-1.6634,0,-1.6417,-1.6462,-1.6455,-1.6499,-1.652,-1.6501,-1.6524,-1.6533,-1.6533,-1.655,-1.655,-1.657,-1.6549,-1.6555,-1.6574,-1.6575,-1.6605,-1.657,-1.6596,-1.6597,-1.6595,-1.6666,-1.6679,-1.6732,-1.6642,-1.6643,-1.6644,0,-1.6488,-1.6502,-1.6549,-1.6555,-1.6563,-1.6584,-1.66,-1.6616,-1.6626,-1.6624,-1.6635,-1.6624,-1.6651,-1.6624,-1.666,-1.6637,-1.6647,-1.6649,-1.6651,-1.6653,-1.6624,-1.6671,-1.6749,-1.6757,-1.6655,-1.6654,-1.6653,0,-1.6541,-1.6571,-1.6602,-1.6609,-1.6617,-1.6632,-1.6636,-1.6644,-1.6655,-1.6668,-1.6675,-1.6692,-1.6701,-1.6714,-1.6708,-1.6689,-1.6746,-1.6718,-1.6745,-1.6746,-1.6759,-1.6758,-1.684,-1.6764,-1.6764,-1.6764,-1.6764,0,-1.6605,-1.6634,-1.6626,-1.6646,-1.6678,-1.6668,-1.67,-1.6702,-1.6709,-1.6729,-1.6714,-1.6732,-1.6724,-1.6742,-1.6737,-1.6768,-1.6772,-1.6772,-1.6771,-1.6774,-1.6774,-1.6781,-1.6777,-1.6766,-1.6766,-1.6765,-1.6765,0,-1.6669,-1.6665,-1.6698,-1.6703,-1.6705,-1.6728,-1.6732,-1.6751,-1.6749,-1.6774,-1.6779,-1.6777,-1.6797,-1.6793,-1.6815,-1.6812,-1.6851,-1.6845,-1.6848,-1.6847,-1.6875,-1.6872,-1.6964,-1.6976,-1.6892,-1.6893,-1.6894,0,-1.671,-1.6732,-1.6739,-1.6751,-1.6757,-1.6776,-1.6787,-1.6778,-1.6791,-1.6802,-1.6819,-1.6838,-1.6853,-1.6887,-1.6887,-1.6904,-1.6898,-1.6929,-1.6901,-1.6903,-1.69,-1.6899,-1.6901,-1.6935,-1.6936,-1.6937,-1.6938,0,-1.6785,-1.6781,-1.6798,-1.6814,-1.6827,-1.6839,-1.685,-1.686,-1.6853,-1.6867,-1.6888,-1.6899,-1.6922,-1.6941,-1.6956,-1.696,-1.6948,-1.6947,-1.6954,-1.6958,-1.6959,-1.6959,-1.6864,-1.6945,-1.6944,-1.6944,-1.6943,-1.6943,-1.6839,-1.6858,-1.6866,-1.6884,-1.6891,-1.6901,-1.6919,-1.6919,-1.6936,-1.6954,-1.6948,-1.6971,-1.6979,-1.6999,-1.7005,-1.7023,-1.7012,-1.7022,-1.7025,-1.7028,-1.7031,-1.6955,-1.7026,-1.7026,-1.7025,-1.7025,-1.7025,0,-1.6913,-1.6917,-1.6934,-1.6949,-1.6964,-1.695,-1.6961,-1.6975,-1.6996,-1.7004,-1.7019,-1.7042,-1.7061,-1.7062,-1.7079,-1.7094,-1.7088,-1.7099,-1.7098,-1.7099,-1.7041,-1.7033,-1.7103,-1.7103,-1.7103,-1.7102,-1.7102,-1.7102,-1.6953,-1.6984,-1.6982,-1.7016,-1.7019,-1.7042,-1.705,-1.7059,-1.7066,-1.7093,-1.7108,-1.7108,-1.7114,-1.7131,-1.7148,-1.7147,-1.7155,-1.7167,-1.7165,-1.7111,-1.7103,-1.7096,-1.7089,-1.7169,-1.7169,-1.7222,-1.7223,-1.7223]},{"header":{"parameterUnit":"m.s-1","parameterCategory":1,"la1":30.2991,"la2":30.254,"lo1":-89.0895,"lo2":-89.0444,"dx":0.0017,"dy":0.0017,"nx":28,"ny":28,"refTime":"2022-11-21T15:00:00:Z","depth":0,"parameterNumber":3,"parameterNumberName":"V-component_of_WINDS"},"data":[0,0,0,0,0,0,0,0,0,0,0,0,0,0,0,0,0,0,0,0,0,0,0,0,0,0,0,0,0,0,0,0,0,0,0,0,0,0,0,0,0,0,0,0,0,0,0,0,0,0,0,0,0,0,0,0,0,0,-4.2687,-4.2688,0,-4.2732,-4.2732,-4.2733,-4.2705,-4.2704,-4.2702,-4.2701,-4.2743,-4.2745,-4.2747,0,0,0,0,0,0,0,0,0,0,0,0,0,-4.2574,-4.2576,-4.2687,-4.2688,-4.2688,-4.2732,-4.2732,-4.2733,-4.2705,-4.2704,-4.2702,-4.2701,-4.2742,-4.2744,-4.2747,0,0,0,0,0,0,0,0,0,0,0,0,0,-4.2621,-4.2577,-4.2687,-4.268,-4.268,-4.2732,-4.2732,-4.2733,-4.2706,-4.2704,-4.2702,-4.27,-4.2741,-4.2744,-4.2748,-4.2808,0,0,-4.2758,-4.276,0,0,0,0,0,0,0,0,-4.2619,-4.2626,-4.268,-4.268,-4.268,-4.2711,-4.2708,-4.2758,-4.2706,-4.2696,-4.2701,-4.2699,-4.2733,-4.2737,-4.275,-4.281,-4.2812,-4.2759,-4.2761,-4.2762,-4.2763,0,0,0,0,0,0,0,-4.2615,-4.2623,-4.2705,-4.2681,-4.2681,-4.2673,-4.2678,-4.2717,-4.2725,-4.2696,-4.2694,-4.27,-4.2733,-4.2747,-4.2751,-4.2812,-4.2758,-4.2762,-4.2764,-4.2765,-4.2925,-4.2927,0,0,0,0,0,0,-4.2613,-4.2621,-4.2703,-4.2706,-4.2644,-4.2677,-4.2682,-4.2703,-4.2724,-4.2726,-4.2702,-4.2699,-4.2742,-4.2747,-4.2752,-4.2825,-4.2762,-4.2765,-4.2767,-4.2923,-4.2925,-4.2928,0,0,0,0,0,0,-4.2611,-4.2621,-4.2702,-4.2663,-4.2673,-4.2681,-4.2705,-4.2705,-4.2719,-4.2729,-4.2729,-4.2715,-4.274,-4.2747,-4.2795,-4.2826,-4.2767,-4.277,-4.292,-4.2924,-4.2927,-4.297,0,0,0,0,0,0,-4.2608,-4.262,-4.2644,-4.2664,-4.2675,-4.2745,-4.2707,-4.2707,-4.2725,-4.2722,-4.2741,-4.2742,-4.2739,-4.279,-4.2798,-4.2829,-4.2773,-4.2917,-4.2922,-4.2926,-4.2966,-4.2975,-4.2982,0,0,0,0,0,-4.2604,-4.2654,-4.2646,-4.2656,-4.2705,-4.2747,-4.2753,-4.275,-4.2728,-4.2751,-4.2758,-4.2741,-4.2821,-4.2795,-4.2804,-4.2837,-4.2915,-4.2921,-4.2925,-4.2963,-4.2973,-4.2982,0,0,0,0,0,0,-4.2636,-4.2656,-4.2647,-4.2705,-4.2725,-4.2742,-4.2772,-4.2761,-4.2786,-4.2781,-4.2775,-4.278,-4.283,-4.2838,-4.2809,-4.2897,-4.2865,-4.2871,-4.289,-4.29,-4.2908,-4.2905,-4.2776,0,0,0,0,0,-4.265,-4.2683,-4.2699,-4.2748,-4.2758,-4.2764,-4.2782,-4.2778,-4.2797,-4.2805,-4.2815,-4.2833,-4.2862,-4.2881,-4.2908,-4.2967,-4.2971,-4.2994,-4.3002,-4.3009,-4.3015,-4.3047,-4.3058,-4.2944,-4.2944,-4.2944,0,0,-4.2678,-4.2694,-4.2715,-4.2755,-4.277,-4.2803,-4.2771,-4.2807,-4.2832,-4.281,-4.2856,-4.2864,-4.2884,-4.2938,-4.2962,-4.2946,-4.3047,-4.3015,-4.302,-4.3023,-4.3053,-4.3064,-4.3073,-4.2947,-4.2946,-4.2946,0,0,-4.2748,-4.2763,-4.2807,-4.2823,-4.2846,-4.2849,-4.286,-4.2879,-4.2884,-4.2931,-4.2915,-4.2943,-4.2993,-4.3009,-4.3023,-4.31,-4.3085,-4.3108,-4.315,-4.3181,-4.319,-4.3198,-4.3226,-4.3236,-4.3114,-4.3114,-4.3115,0,-4.278,-4.2832,-4.283,-4.2869,-4.2887,-4.287,-4.2913,-4.2928,-4.2958,-4.2971,-4.2953,-4.3016,-4.3028,-4.3086,-4.3105,-4.3116,-4.3128,-4.3106,-4.3189,-4.3197,-4.3205,-4.3231,-4.3241,-4.3117,-4.3117,-4.3117,-4.3116,0,-4.2871,-4.2907,-4.2939,-4.2972,-4.2993,-4.3034,-4.3036,-4.3058,-4.3052,-4.3057,-4.3105,-4.3119,-4.3149,-4.3162,-4.3156,-4.3219,-4.3209,-4.319,-4.3158,-4.3218,-4.3243,-4.3253,-4.3121,-4.312,-4.3119,-4.3119,0,0,-4.2962,-4.2993,-4.3005,-4.302,-4.3045,-4.3072,-4.3111,-4.3143,-4.3162,-4.3183,-4.3216,-4.326,-4.3243,-4.3259,-4.3255,-4.3282,-4.3343,-4.326,-4.3261,-4.3276,-4.3413,-4.3428,-4.3439,-4.3334,-4.3335,-4.3337,-4.3412,0,-4.3034,-4.3106,-4.3105,-4.317,-4.3204,-4.3188,-4.3223,-4.3241,-4.3247,-4.3275,-4.328,-4.3312,-4.3287,-4.3297,-4.3323,-4.333,-4.337,-4.3324,-4.3364,-4.3365,-4.336,-4.3452,-4.3467,-4.3537,-4.3421,-4.3423,-4.3424,0,-4.3127,-4.3154,-4.3224,-4.3245,-4.3259,-4.3291,-4.3319,-4.3347,-4.3367,-4.3369,-4.3388,-4.3379,-4.3419,-4.3385,-4.3439,-4.3408,-4.3424,-4.343,-4.3432,-4.3436,-4.3399,-4.3459,-4.356,-4.357,-4.3439,-4.3438,-4.3437,0,-4.3188,-4.3241,-4.329,-4.3303,-4.3328,-4.3351,-4.3362,-4.3381,-4.34,-4.3424,-4.3437,-4.3465,-4.3481,-4.3502,-4.3501,-4.3477,-4.3556,-4.3522,-4.3559,-4.3559,-4.3576,-4.3575,-4.3681,-4.3586,-4.3586,-4.3585,-4.3585,0,-4.3268,-4.3312,-4.3318,-4.3348,-4.3396,-4.3394,-4.3441,-4.345,-4.3467,-4.3497,-4.3485,-4.3513,-4.351,-4.3539,-4.3538,-4.3583,-4.359,-4.3593,-4.3592,-4.3594,-4.3594,-4.3605,-4.36,-4.3588,-4.3588,-4.3587,-4.3587,0,-4.3344,-4.3349,-4.3402,-4.3422,-4.3429,-4.3463,-4.348,-4.3508,-4.3513,-4.3552,-4.3561,-4.3568,-4.3601,-4.3603,-4.364,-4.364,-4.3695,-4.3688,-4.3689,-4.3688,-4.3724,-4.3721,-4.3841,-4.3857,-4.3751,-4.3752,-4.3753,0,-4.3395,-4.3429,-4.3453,-4.3474,-4.3488,-4.3521,-4.3541,-4.354,-4.3561,-4.3587,-4.3612,-4.3644,-4.367,-4.3724,-4.3732,-4.3761,-4.3755,-4.3795,-4.3759,-4.3761,-4.3756,-4.3755,-4.3758,-4.3802,-4.3804,-4.3804,-4.3805,0,-4.3486,-4.3488,-4.3518,-4.355,-4.3575,-4.3599,-4.3622,-4.3639,-4.364,-4.3664,-4.37,-4.372,-4.3759,-4.3792,-4.382,-4.383,-4.3818,-4.3817,-4.3827,-4.383,-4.3829,-4.383,-4.3709,-4.3814,-4.3813,-4.3812,-4.3812,-4.3812,-4.3552,-4.3581,-4.3604,-4.3638,-4.3655,-4.3677,-4.3705,-4.3714,-4.3744,-4.3777,-4.3774,-4.3813,-4.3832,-4.3869,-4.3882,-4.3912,-4.3898,-4.3912,-4.3916,-4.3919,-4.3924,-4.3824,-4.3916,-4.3916,-4.3916,-4.3916,-4.3916,0,-4.3643,-4.3657,-4.3689,-4.3722,-4.3749,-4.3737,-4.3761,-4.3784,-4.3819,-4.3839,-4.3866,-4.3906,-4.3937,-4.3948,-4.3978,-4.4,-4.3995,-4.4008,-4.4006,-4.4009,-4.3934,-4.3923,-4.4011,-4.4011,-4.4011,-4.4011,-4.4011,-4.4011,-4.3693,-4.3743,-4.3747,-4.3805,-4.3818,-4.3858,-4.3873,-4.3892,-4.3909,-4.3955,-4.3982,-4.3989,-4.4005,-4.4036,-4.4065,-4.4067,-4.4079,-4.4094,-4.4094,-4.4024,-4.4014,-4.4005,-4.3994,-4.4096,-4.4097,-4.4166,-4.4167,-4.4168]}]]